Wetbulb
76.18 76.01 76.35 76.63 77.28 76.33 75.72 75.33 74.26 72.96 76.88 76.41 77.04 77.55 76.34 77.18 76.80 76.38 76.39 76.18 75.75 75.00 74.83 75.92 76.09 75.76 76.32 76.21 76.12 75.61 76.18 76.05 75.92 76.13 76.21 75.93 76.31 76.30 76.04 75.90 75.80 75.86 75.71
76.13 77.05 76.27 76.39 76.84 76.78 76.41 75.98 73.25 73.45 75.24 72.50 73.14 73.98 75.38 75.91 74.34 74.64 75.99 77.61 75.96 75.24 74.92 74.36 76.19 76.38 75.85 76.38 76.25 75.78 75.18 76.10 75.70 75.45 75.75 76.09 76.00 75.91 76.05 75.79 75.65 75.66 75.47
77.95 76.96 75.71 76.12 76.16 77.02 77.28 76.45 76.33 77.02 75.43 73.91 73.15 72.57 75.06 73.00 74.30 75.26 75.02 76.02 76.14 75.31 75.58 75.22 74.19 76.26 76.09 76.23 76.38 76.20 75.14 75.62 75.22 74.80 74.66 75.47 75.30 75.12 74.80 74.50 74.34 74.47 74.48
77.97 77.76 74.95 75.61 76.47 76.41 76.22 76.02 75.89 76.78 73.66 72.02 71.26 72.26 73.11 73.02 73.70 72.91 73.07 74.98 74.31 75.14 75.38 75.90 76.46 75.90 76.09 76.35 76.30 76.12 75.85 75.29 75.36 74.68 74.03 74.07 74.06 73.98 73.72 73.70 73.66 73.90 73.78
78.67 78.85 77.85 75.56 76.90 75.53 75.51 75.03 75.79 77.43 76.48 73.76 71.42 70.36 70.07 72.99 71.58 71.32 73.42 73.31 74.74 74.64 74.56 73.27 74.68 75.38 76.15 75.82 76.18 76.18 76.14 75.79 75.30 75.03 74.15 73.80 73.73 73.86 73.79 73.50 73.61 73.77 73.67
78.69 78.31 77.35 78.98 77.48 77.80 78.21 75.96 77.15 77.34 76.68 75.74 71.03 70.75 71.81 73.29 73.75 71.98 71.10 72.77 72.60 73.88 73.06 74.33 74.52 73.93 75.06 75.10 75.85 76.17 75.99 76.18 75.59 75.17 74.84 74.50 74.36 73.91 73.67 73.62 73.63 73.68 73.55
78.81 79.08 77.06 77.55 77.90 76.71 77.04 77.53 76.97 76.64 76.70 72.29 70.07 71.75 72.57 74.16 72.65 73.14 74.19 72.88 70.86 72.29 72.50 72.48 72.73 72.16 72.66 75.04 75.65 76.06 75.90 76.26 76.37 75.66 75.10 75.52 75.14 74.69 74.57 74.44 73.92 73.59 73.36
79.38 78.90 78.83 78.26 77.62 76.20 77.91 77.18 76.49 76.83 77.13 74.61 69.26 68.69 67.63 71.26 71.51 73.17 72.18 71.87 70.34 70.36 71.41 72.78 72.26 71.49 73.78 73.31 73.47 75.13 76.11 76.01 76.27 76.23 75.60 75.74 75.49 75.22 75.04 74.59 74.46 73.67 73.24
79.06 79.32 79.17 79.04 78.23 79.56 76.79 76.41 76.43 76.41 75.22 72.65 70.53 71.95 68.68 65.75 71.02 70.79 72.09 74.74 73.65 70.82 70.75 71.74 72.62 72.01 71.91 74.07 73.27 74.68 75.52 74.67 76.65 76.81 76.55 76.14 75.84 75.61 75.16 74.86 74.80 74.38 74.24
79.03 79.14 79.24 79.29 79.04 77.59 77.78 77.30 77.75 76.60 76.75 74.79 69.95 71.31 73.27 73.49 70.56 70.38 75.76 72.92 75.84 72.77 71.40 71.65 72.14 72.07 71.61 72.85 73.22 73.57 74.22 75.17 76.02 76.70 76.74 76.46 76.32 75.64 74.84 74.74 74.83 74.74 74.62
79.32 78.95 79.22 79.28 79.05 78.06 78.32 77.95 77.27 77.08 77.81 77.20 76.23 69.98 74.38 75.29 74.47 71.81 69.39 72.67 71.32 72.04 72.51 74.84 74.72 72.40 72.74 73.37 72.92 73.45 73.34 74.24 75.09 75.69 76.36 76.64 76.49 76.34 75.61 75.01 74.37 74.27 73.89
77.44 78.88 78.98 78.96 79.23 78.51 78.28 78.55 78.27 77.91 77.16 76.56 77.50 75.27 75.12 73.99 73.69 72.96 71.32 70.95 67.76 71.42 73.49 72.36 74.50 74.21 72.73 75.21 73.50 73.31 73.57 73.27 73.34 74.18 75.41 75.99 76.47 76.70 76.74 76.25 75.57 74.88 74.34
76.04 77.36 79.11 78.91 78.09 78.78 78.66 78.56 78.29 78.53 77.67 76.62 76.86 75.33 78.93 77.96 77.26 77.04 73.49 73.18 68.88 72.13 74.59 74.64 75.39 73.20 74.67 76.68 74.72 74.24 73.46 73.01 72.85 72.60 73.32 74.45 75.40 75.97 76.27 76.34 76.68 76.62 75.57
76.28 78.12 78.18 78.90 78.96 79.03 78.90 78.78 77.86 77.48 77.90 77.39 77.47 77.39 77.25 80.05 76.85 78.13 76.22 71.95 69.38 70.15 72.60 73.74 73.78 74.48 74.13 77.68 74.85 74.47 74.27 72.05 72.08 71.49 71.41 72.13 73.45 74.22 75.09 75.61 75.64 75.89 75.97
76.95 77.86 78.44 78.58 79.03 78.99 79.29 79.13 77.57 77.56 77.86 77.74 77.47 77.64 77.09 77.09 80.32 77.64 75.54 73.62 71.31 68.26 71.86 73.92 74.45 74.94 74.61 74.60 76.32 76.50 75.04 72.58 71.69 71.40 70.66 70.55 71.72 72.86 73.31 73.90 74.00 74.11 74.59
78.37 78.66 78.29 78.58 78.49 78.99 79.29 79.44 77.99 78.17 77.81 78.02 77.67 77.86 78.04 79.94 79.07 77.91 75.66 74.54 72.90 70.39 69.58 74.94 75.23 75.04 76.21 75.57 75.37 75.75 74.99 72.88 71.19 70.95 70.27 69.77 70.19 70.82 71.55 72.19 72.49 72.87 73.05
78.86 78.66 79.12 78.53 78.66 78.66 79.61 79.00 78.87 78.64 78.05 79.04 78.47 77.72 76.85 78.88 75.46 75.90 75.01 74.39 72.82 71.60 70.98 73.22 75.63 76.06 76.15 74.18 73.68 73.74 73.98 73.55 74.19 70.17 69.94 69.74 69.24 69.50 70.16 70.65 70.74 71.11 71.65
78.79 79.01 79.05 78.82 78.77 78.87 79.13 78.95 78.46 78.33 78.33 78.48 78.24 78.08 78.10 77.67 77.80 77.11 76.88 74.92 73.27 73.87 73.10 73.67 75.58 75.33 75.89 76.60 75.44 74.37 74.28 73.42 74.54 72.13 69.45 68.93 68.64 68.50 68.39 68.53 68.48 68.50 68.46
78.93 78.59 79.08 79.04 78.95 79.13 79.10 79.29 79.35 79.33 79.22 78.95 79.32 78.31 78.24 77.80 77.64 77.34 76.92 77.46 76.79 75.41 74.52 75.01 73.89 75.54 75.21 76.50 75.99 74.44 73.03 73.43 74.53 73.04 69.09 68.37 68.51 68.33 67.54 66.44 66.24 65.86 65.00
78.88 79.49 79.89 79.84 79.76 79.86 79.50 79.36 79.28 79.50 79.47 79.43 79.62 79.71 79.26 78.86 78.21 78.20 78.23 77.83 77.86 77.17 76.09 75.88 74.89 73.47 73.84 76.52 75.77 74.47 74.17 75.31 74.40 74.86 74.00 73.43 71.35 69.63 67.83 66.08 65.58 65.18 63.02
78.79 80.10 80.19 80.35 80.44 80.05 79.69 79.66 79.51 79.47 79.51 79.47 79.82 79.86 79.78 78.76 74.26 75.37 77.62 78.04 78.10 76.11 78.00 74.73 73.17 72.27 73.03 73.34 73.50 74.61 73.71 74.02 74.44 74.55 74.15 74.97 75.15 74.73 74.77 68.32 71.02 68.06 65.18
79.87 79.89 80.02 80.68 80.42 79.85 73.05 71.44 75.73 79.18 79.74 79.35 78.87 79.58 79.89 75.99 75.09 71.19 71.09 71.58 75.20 76.62 75.76 74.29 73.34 72.95 74.19 74.53 74.89 73.87 73.13 72.18 70.25 76.01 74.34 73.24 75.92 74.37 74.84 76.08 71.51 68.83 65.70
80.23 80.42 80.51 81.02 80.70 81.07 71.48 68.97 71.02 78.47 78.88 79.40 79.25 79.02 78.99 78.35 76.61 79.13 71.84 69.78 70.49 69.53 71.19 77.07 75.30 74.80 74.97 76.08 78.18 76.91 76.38 74.29 73.06 75.90 75.45 72.80 74.85 74.08 75.39 74.97 68.21 66.73 65.73
74.85 79.35 79.43 80.76 81.58 80.98 69.28 67.65 69.91 78.76 79.50 79.88 80.14 80.01 79.94 79.34 79.27 79.06 79.00 77.91 77.46 77.36 76.64 76.19 76.66 76.97 77.21 77.51 77.58 77.36 76.95 76.67 76.14 75.17 76.97 71.87 74.38 73.94 75.24 75.81 67.78 66.89 65.46
77.05 76.98 77.20 79.09 79.72 80.89 68.84 65.89 70.70 78.92 79.25 79.83 80.53 80.72 80.64 79.88 72.79 69.38 78.13 77.39 77.50 77.32 71.65 69.10 69.12 67.05 67.60 67.85 71.57 76.06 73.90 73.05 72.73 74.27 76.25 75.77 73.78 73.95 75.13 74.31 74.89 66.44 63.98
74.43 73.52 73.92 75.33 72.14 77.07 70.62 64.28 69.21 78.86 78.94 78.90 80.62 81.51 71.01 76.63 66.77 66.37 77.62 77.07 75.83 75.95 76.59 76.79 76.61 73.09 70.36 73.53 66.95 75.22 77.83 74.61 73.91 72.89 74.96 75.62 76.19 76.36 71.12 74.17 75.70 75.10 73.47
MSLP
1020.66 1020.62 1021.64 1021.34 1021.10 1021.05 1021.24 1021.66 1022.67 1022.90 1022.21 1022.20 1022.30 1022.22 1022.49 1022.35 1022.19 1021.98 1021.95 1023.20 1023.59 1023.69 1023.94 1023.92 1024.00 1024.10 1024.08 1024.12 1024.21 1024.29 1024.29 1024.32 1024.29 1024.31 1024.41 1024.49 1024.56 1024.69 1024.82 1024.95 1025.09 1025.16 1025.28
1020.60 1020.17 1020.49 1020.68 1020.94 1021.03 1021.24 1022.07 1022.95 1023.01 1022.74 1023.09 1023.12 1023.18 1022.95 1022.95 1023.13 1023.14 1022.93 1023.12 1023.53 1024.03 1024.11 1023.98 1024.07 1024.11 1024.05 1024.26 1024.22 1024.29 1024.42 1024.47 1024.54 1024.50 1024.63 1024.75 1024.83 1024.98 1025.08 1025.20 1025.32 1025.46 1025.59
1020.83 1020.79 1020.73 1020.70 1020.83 1021.15 1021.51 1021.89 1022.48 1022.20 1022.60 1022.83 1023.04 1023.43 1023.21 1023.38 1023.14 1022.97 1023.36 1023.43 1023.35 1023.72 1024.00 1024.05 1024.03 1023.98 1024.17 1024.07 1024.17 1024.27 1024.43 1024.55 1024.68 1024.82 1024.80 1024.96 1025.07 1025.15 1025.30 1025.45 1025.66 1025.82 1026.00
1020.95 1021.08 1020.82 1020.59 1020.77 1021.19 1021.62 1021.83 1021.76 1022.50 1022.86 1023.20 1023.34 1023.33 1023.22 1023.35 1023.19 1023.39 1023.50 1023.37 1023.46 1023.24 1023.89 1023.83 1023.82 1023.90 1023.88 1024.05 1024.11 1024.26 1024.43 1024.60 1024.76 1024.95 1025.06 1025.09 1025.18 1025.32 1025.57 1025.83 1025.98 1026.14 1026.32
1020.81 1020.91 1020.75 1020.64 1021.23 1020.98 1021.06 1021.14 1021.36 1022.13 1022.43 1022.81 1023.40 1023.72 1023.75 1022.75 1023.25 1023.19 1023.03 1023.29 1022.82 1023.12 1023.43 1023.53 1023.65 1023.81 1023.90 1023.96 1024.06 1024.11 1024.33 1024.47 1024.70 1024.95 1025.07 1025.23 1025.32 1025.50 1025.68 1025.95 1026.17 1026.36 1026.55
1020.48 1020.63 1020.22 1021.02 1021.01 1020.93 1021.03 1020.92 1021.56 1021.84 1022.12 1022.55 1023.40 1023.44 1023.20 1022.35 1021.93 1022.87 1023.12 1023.14 1023.23 1023.20 1023.32 1023.50 1023.53 1023.64 1023.84 1023.96 1024.07 1024.16 1024.08 1024.30 1024.52 1024.83 1025.00 1025.24 1025.42 1025.61 1025.74 1025.94 1026.24 1026.46 1026.65
1020.15 1020.40 1020.03 1020.32 1020.73 1020.84 1020.96 1021.27 1021.49 1021.52 1021.79 1022.79 1023.13 1022.52 1022.08 1021.73 1021.99 1021.78 1021.88 1022.47 1023.09 1023.29 1023.40 1023.59 1023.67 1023.60 1023.62 1023.76 1023.96 1023.86 1023.92 1023.91 1024.20 1024.55 1024.83 1025.17 1025.40 1025.61 1025.80 1025.92 1026.16 1026.39 1026.62
1019.97 1020.01 1020.06 1019.96 1020.45 1020.13 1020.80 1020.99 1021.15 1021.38 1021.48 1022.39 1022.94 1023.05 1022.17 1021.99 1022.00 1021.84 1022.17 1022.47 1022.90 1023.09 1023.09 1023.03 1023.10 1023.09 1023.34 1023.32 1023.44 1023.65 1023.65 1023.63 1023.69 1024.17 1024.50 1024.90 1025.25 1025.46 1025.68 1025.82 1025.98 1026.19 1026.42
1019.61 1019.82 1019.82 1019.88 1019.82 1020.40 1020.44 1020.62 1020.75 1020.96 1021.46 1022.49 1022.85 1022.50 1022.08 1021.82 1021.66 1021.76 1021.78 1021.47 1022.12 1022.56 1022.41 1022.53 1022.23 1022.61 1022.65 1022.67 1022.78 1022.98 1023.16 1023.34 1023.42 1023.65 1024.02 1024.49 1024.82 1025.18 1025.39 1025.58 1025.74 1025.87 1026.11
1019.08 1019.24 1019.47 1019.68 1019.87 1019.42 1019.66 1019.89 1020.16 1020.69 1021.10 1021.52 1022.54 1022.55 1022.10 1021.41 1021.55 1021.06 1020.73 1021.08 1021.20 1021.98 1022.14 1022.08 1021.79 1021.94 1022.09 1022.32 1022.43 1022.59 1022.64 1022.83 1023.04 1023.27 1023.47 1023.83 1024.26 1024.67 1024.96 1025.18 1025.38 1025.59 1025.71
1018.69 1018.73 1018.99 1019.24 1019.47 1019.51 1019.42 1019.74 1019.75 1020.22 1020.72 1020.90 1021.08 1021.79 1021.22 1021.25 1021.08 1021.22 1020.13 1020.83 1021.06 1021.17 1021.21 1020.84 1020.66 1021.23 1021.30 1021.06 1021.68 1021.70 1022.04 1022.33 1022.54 1022.76 1023.00 1023.30 1023.67 1024.00 1024.39 1024.70 1024.94 1025.14 1025.33
1017.82 1018.36 1018.51 1018.85 1018.98 1019.01 1019.22 1019.40 1019.54 1019.79 1020.07 1020.13 1020.37 1020.20 1020.50 1020.58 1020.40 1020.48 1020.27 1020.37 1020.75 1020.30 1020.50 1020.23 1020.05 1020.13 1020.63 1020.04 1020.60 1020.81 1021.44 1021.64 1022.05 1022.23 1022.48 1022.77 1023.09 1023.33 1023.59 1023.95 1024.25 1024.50 1024.74
1017.12 1017.31 1018.19 1018.58 1018.53 1018.67 1018.70 1018.84 1019.16 1019.39 1019.57 1019.58 1019.60 1019.23 1019.39 1019.77 1019.82 1019.82 1020.08 1019.96 1020.07 1019.17 1019.04 1019.17 1018.73 1019.66 1019.29 1019.39 1019.67 1020.20 1020.63 1021.00 1021.36 1021.74 1022.00 1022.28 1022.53 1022.77 1023.06 1023.30 1023.48 1023.74 1023.97
1016.64 1016.82 1017.31 1017.94 1018.03 1018.14 1018.24 1018.44 1018.68 1018.81 1018.77 1018.89 1018.99 1018.97 1018.73 1018.85 1019.08 1019.10 1019.27 1019.51 1019.39 1019.01 1018.49 1018.57 1018.79 1019.08 1018.89 1018.85 1019.25 1019.53 1019.86 1020.41 1020.79 1021.16 1021.47 1021.72 1022.01 1022.29 1022.51 1022.74 1022.90 1023.07 1023.24
1016.30 1016.65 1017.15 1017.55 1017.57 1017.67 1017.80 1017.86 1018.05 1018.12 1018.32 1018.36 1018.24 1018.24 1018.25 1017.87 1018.13 1018.36 1018.59 1019.14 1019.21 1019.04 1018.24 1018.44 1018.27 1018.44 1018.97 1018.72 1018.58 1018.76 1019.08 1019.70 1020.10 1020.53 1020.85 1021.16 1021.47 1021.74 1022.04 1022.25 1022.43 1022.53 1022.67
1016.01 1016.25 1016.54 1017.07 1017.15 1017.04 1017.01 1017.43 1017.39 1017.64 1017.82 1017.70 1017.52 1017.42 1017.44 1017.55 1017.73 1017.82 1018.42 1018.86 1019.24 1019.26 1018.71 1018.06 1018.19 1018.03 1018.17 1018.44 1018.48 1018.49 1018.86 1019.59 1019.55 1019.92 1020.26 1020.55 1020.76 1021.06 1021.35 1021.60 1021.82 1022.03 1022.13
1015.64 1015.77 1016.07 1016.42 1016.58 1016.53 1016.77 1016.77 1016.85 1016.78 1016.92 1017.11 1017.08 1016.99 1017.26 1017.20 1017.29 1017.63 1018.17 1018.48 1018.76 1018.87 1018.31 1017.42 1017.27 1017.34 1017.64 1018.02 1018.43 1018.71 1018.97 1019.14 1019.26 1019.57 1019.76 1020.05 1020.36 1020.57 1020.77 1020.94 1021.10 1021.28 1021.42
1015.11 1015.08 1015.39 1015.76 1015.92 1015.95 1016.09 1016.30 1016.33 1016.08 1016.24 1016.40 1016.27 1016.35 1016.61 1016.83 1016.92 1017.12 1017.45 1017.89 1018.25 1018.46 1018.13 1017.31 1016.91 1016.82 1017.13 1017.32 1017.56 1018.17 1018.39 1018.80 1018.90 1019.02 1019.17 1019.36 1019.55 1019.92 1020.10 1020.29 1020.48 1020.68 1020.84
1014.51 1014.42 1014.54 1015.04 1015.22 1015.19 1015.30 1015.42 1015.59 1015.53 1015.44 1015.51 1015.79 1015.82 1015.79 1016.17 1016.16 1016.37 1016.60 1017.10 1017.54 1017.47 1017.62 1017.18 1016.39 1016.85 1016.66 1016.45 1017.11 1017.66 1017.90 1017.89 1017.89 1017.88 1018.45 1018.71 1019.05 1019.32 1019.42 1019.51 1019.64 1019.79 1019.96
1013.79 1013.83 1013.74 1013.91 1014.22 1014.41 1014.44 1014.60 1014.74 1014.81 1014.85 1014.83 1014.98 1015.26 1015.30 1015.54 1015.48 1015.94 1016.12 1016.42 1016.60 1016.57 1016.53 1016.60 1016.18 1016.39 1016.54 1015.90 1016.19 1015.96 1016.37 1016.77 1016.52 1016.44 1016.52 1017.12 1017.60 1018.03 1018.31 1018.59 1018.77 1019.10 1019.25
1013.16 1013.30 1013.33 1013.30 1013.39 1013.45 1013.44 1013.68 1013.98 1014.01 1014.10 1014.23 1014.21 1014.39 1014.52 1014.79 1014.97 1015.18 1015.33 1015.68 1016.07 1016.10 1015.99 1016.28 1016.26 1016.58 1016.06 1015.45 1015.44 1015.30 1015.52 1015.62 1016.25 1016.17 1015.62 1015.80 1016.65 1016.60 1016.54 1017.35 1017.31 1017.73 1018.02
1012.72 1012.76 1012.79 1012.75 1012.77 1012.68 1012.50 1013.01 1013.26 1013.03 1013.18 1013.37 1013.32 1013.34 1013.62 1013.96 1014.41 1014.65 1014.90 1015.29 1015.42 1015.63 1015.61 1015.83 1015.65 1015.52 1015.52 1015.34 1015.11 1014.83 1014.80 1014.73 1014.64 1015.10 1015.32 1014.55 1014.89 1014.86 1014.64 1014.67 1014.92 1015.81 1016.42
1012.30 1012.10 1012.05 1012.11 1012.14 1012.26 1012.10 1012.45 1012.88 1013.01 1012.53 1012.33 1012.43 1012.43 1012.55 1012.47 1013.39 1013.71 1014.29 1014.58 1014.89 1015.22 1015.34 1015.08 1015.12 1014.92 1014.77 1014.92 1014.99 1015.20 1015.12 1014.84 1014.83 1014.45 1015.23 1014.20 1013.88 1013.82 1013.85 1013.98 1014.68 1015.23 1015.57
1012.90 1011.53 1011.35 1011.07 1011.90 1011.66 1011.67 1011.99 1012.28 1012.48 1011.98 1011.75 1011.71 1011.74 1012.02 1011.95 1012.16 1012.58 1012.68 1013.26 1013.51 1013.63 1014.15 1014.45 1014.53 1014.60 1014.74 1014.81 1014.95 1015.07 1015.16 1015.31 1014.87 1014.49 1014.60 1014.27 1013.66 1013.17 1013.25 1013.11 1013.93 1014.55 1014.98
1012.45 1011.59 1011.28 1010.28 1011.11 1011.36 1011.27 1011.38 1012.01 1011.75 1011.16 1011.01 1010.95 1011.03 1011.23 1011.33 1011.39 1012.10 1011.88 1011.94 1011.97 1012.09 1012.18 1013.11 1013.57 1014.09 1014.47 1014.82 1014.97 1014.87 1014.64 1014.17 1013.72 1013.86 1013.63 1014.06 1013.48 1013.39 1013.28 1013.10 1013.17 1014.27 1014.69
1012.04 1011.45 1011.33 1011.15 1011.33 1011.18 1011.02 1011.31 1011.45 1010.75 1010.28 1010.16 1009.99 1010.28 1010.81 1010.69 1010.85 1011.43 1011.52 1011.15 1011.09 1011.01 1011.16 1011.78 1012.86 1013.68 1013.78 1013.95 1014.98 1014.86 1014.48 1014.54 1014.27 1014.08 1013.41 1013.70 1013.94 1013.94 1013.25 1012.57 1012.85 1013.31 1013.90
Wind_Speed
6 6 6 5 2 3 4 3 6 3 1 3 4 2 4 3 2 1 1 7 4 3 1 4 4 5 6 6 6 6 6 8 8 9 8 9 10 11 12 11 11 10 10
3 3 5 5 3 4 4 4 3 2 1 1 3 5 3 1 2 3 4 2 5 5 9 5 6 7 7 6 7 7 6 5 8 9 7 9 11 12 13 12 12 12 12
5 2 4 4 4 3 3 6 6 4 3 3 1 2 1 3 4 3 1 2 0 5 7 13 9 8 9 9 8 7 8 7 7 7 8 10 10 10 10 10 10 10 10
4 5 4 4 4 4 4 4 5 2 2 3 2 3 4 3 4 2 3 3 2 2 6 9 10 11 9 9 9 9 9 9 8 8 8 8 9 10 10 10 10 11 10
7 5 4 5 4 5 5 5 4 4 4 6 4 2 3 8 3 5 6 2 8 6 3 4 3 7 8 9 10 9 10 11 10 10 10 9 10 10 10 10 9 10 10
8 7 5 5 6 5 4 6 5 5 4 1 3 5 7 9 6 6 5 3 6 4 1 3 4 3 7 7 10 10 12 13 12 12 11 10 10 11 11 11 10 9 9
8 7 6 5 6 6 7 4 6 7 4 3 1 5 5 9 6 6 8 4 3 6 7 5 3 3 2 8 11 12 14 13 15 15 14 12 12 11 11 11 11 10 9
9 9 7 6 6 7 5 6 7 6 3 5 2 1 3 1 2 1 1 5 7 6 5 9 9 7 6 5 8 13 14 16 16 16 16 15 14 13 12 12 12 11 11
10 10 9 8 6 6 6 7 7 8 4 3 4 4 2 1 3 2 7 6 9 6 6 8 8 9 8 6 8 9 13 14 14 17 18 17 16 15 15 14 13 13 12
11 11 10 9 8 6 5 6 6 7 5 4 2 5 9 7 3 3 5 4 5 7 8 8 9 8 10 8 12 12 11 13 13 15 18 19 18 18 18 17 15 14 14
10 11 10 10 9 8 7 7 6 6 5 6 6 3 8 6 8 6 8 2 2 0 6 7 7 8 11 12 11 14 16 13 15 16 16 18 20 20 20 19 18 17 17
8 11 11 10 9 9 8 7 8 9 8 7 5 8 6 5 5 5 5 3 4 5 6 5 9 9 9 10 14 15 19 19 17 15 16 16 18 20 22 22 21 20 19
7 8 11 10 10 10 10 9 8 8 8 9 9 9 7 7 7 6 5 6 5 6 4 6 8 7 10 8 12 16 19 13 17 16 16 16 17 18 20 21 21 21 21
7 7 8 11 12 11 10 10 9 9 9 9 11 10 9 6 6 6 7 4 5 5 7 6 1 2 3 6 10 14 12 17 16 16 17 17 17 17 17 19 19 20 21
8 8 9 11 11 12 12 11 10 10 10 10 11 11 10 9 6 6 5 6 6 3 5 1 2 5 4 6 8 11 13 11 18 18 16 15 16 17 17 17 17 18 18
10 9 10 11 12 12 12 12 10 11 11 10 9 11 11 7 8 6 6 6 5 5 4 2 1 3 2 3 6 6 4 4 14 15 15 15 17 17 18 18 17 18 20
12 11 11 12 13 13 12 12 12 11 11 11 11 10 9 9 8 5 6 6 7 7 7 6 3 4 3 4 3 3 5 4 4 12 12 13 14 15 16 17 18 19 20
13 12 12 14 14 14 13 13 14 12 13 13 12 11 11 6 10 9 6 8 8 8 8 8 4 5 5 6 6 5 5 6 5 7 15 15 15 15 16 16 16 16 16
13 14 13 14 15 15 15 15 14 14 14 14 12 11 12 10 10 8 9 6 7 7 9 8 5 3 4 6 9 5 7 7 8 12 14 14 14 15 16 16 17 17 17
12 13 13 14 15 16 16 16 16 15 15 13 12 12 11 10 10 8 8 8 7 6 8 7 6 3 5 5 6 5 8 7 7 8 12 10 13 19 18 15 16 16 16
13 13 14 14 15 14 12 16 16 15 14 14 13 11 12 11 9 9 7 7 8 7 4 6 3 5 7 7 7 6 7 5 6 5 6 6 7 9 12 17 15 21 18
10 11 13 14 14 12 11 12 12 12 12 13 12 13 12 10 10 11 11 8 7 8 8 6 6 7 7 6 7 6 7 6 5 7 6 7 8 7 7 8 12 14 19
13 13 11 13 14 14 9 10 11 13 12 12 12 12 11 10 12 11 12 9 9 8 9 7 9 8 7 8 8 5 8 7 8 4 5 8 7 7 7 7 11 13 13
26 9 8 11 12 13 10 11 12 13 13 13 12 12 12 11 12 12 12 13 13 13 13 11 12 10 9 8 7 7 7 8 9 7 8 9 8 7 6 8 14 12 10
11 7 8 8 10 13 8 12 11 12 13 14 13 14 13 13 12 14 13 13 13 12 15 16 11 4 4 2 5 5 8 8 7 7 6 7 8 5 5 7 1 8 8
9 6 6 7 10 10 7 10 11 10 13 12 14 14 13 15 13 17 16 14 13 12 12 15 12 11 12 12 10 11 7 8 7 5 6 5 6 3 8 3 2 8 8
Wind_Direction
167 184 140 209 160 125 137 156 61 30 22 67 13 118 330 318 318 236 340 161 205 167 154 183 183 175 169 155 146 129 131 135 126 110 120 124 129 128 126 121 125 132 131
179 185 162 163 164 175 129 72 124 154 181 30 39 1 47 41 313 339 349 109 191 181 162 241 236 203 196 179 173 153 145 139 141 130 122 131 128 130 127 125 120 120 123
168 185 202 209 167 154 175 176 189 186 157 256 34 354 143 311 241 218 202 248 301 196 190 186 232 233 208 194 190 175 160 154 149 141 137 131 133 134 128 116 127 125 127
198 196 182 206 168 195 195 195 226 155 171 158 158 15 303 282 256 243 250 262 259 265 197 213 204 220 218 209 197 186 175 170 165 157 158 149 132 131 135 143 142 140 141
193 206 219 178 205 222 205 218 240 172 210 174 160 177 259 271 209 288 318 225 239 208 214 220 241 226 229 224 209 196 189 185 175 178 170 167 162 158 154 154 155 153 152
198 215 209 201 210 231 246 230 210 233 234 208 153 225 222 244 221 216 227 214 292 345 265 262 208 201 228 243 242 210 211 197 188 187 182 185 182 179 170 167 169 169 167
208 211 237 200 221 236 229 235 228 230 238 100 92 289 284 266 236 230 224 186 176 267 182 235 242 244 247 235 236 227 206 207 199 193 192 193 193 191 185 178 180 181 183
220 225 236 227 218 244 231 242 248 263 244 151 142 111 279 95 251 28 311 192 193 218 286 209 225 228 232 206 239 221 216 212 211 203 199 197 200 199 195 192 189 191 192
230 226 222 244 225 228 234 243 238 247 261 99 220 275 312 257 302 204 211 202 198 205 228 246 235 221 233 210 214 215 219 219 213 211 208 202 200 204 203 202 200 198 198
228 227 227 223 231 248 250 234 230 236 233 222 194 242 255 275 284 299 205 157 214 205 228 238 242 216 207 221 203 220 222 212 215 216 215 211 204 206 209 209 208 206 207
229 225 222 221 225 233 223 252 238 234 236 245 255 177 235 239 239 243 291 150 8 252 222 255 236 209 225 218 211 214 216 217 212 216 219 216 211 211 213 215 215 215 216
212 223 226 225 228 235 235 234 231 232 241 250 236 253 246 239 252 253 277 278 242 245 232 211 242 230 229 220 225 200 213 222 215 220 215 219 217 216 216 216 217 218 221
241 221 218 224 223 226 239 234 228 246 232 244 238 258 223 238 252 258 246 269 254 302 260 218 241 206 237 226 214 225 209 227 205 211 216 215 219 217 222 224 221 220 221
245 247 229 234 227 238 228 232 236 239 242 238 244 256 271 256 249 253 251 240 269 255 286 263 331 205 308 250 239 190 220 213 210 211 216 218 217 220 219 224 226 228 227
246 231 250 244 239 235 234 232 235 241 243 245 251 250 253 269 248 268 269 232 236 281 304 82 288 178 217 249 228 218 214 226 209 211 212 213 214 218 223 227 227 227 229
229 247 232 238 241 237 228 223 236 236 245 246 248 253 258 263 246 244 239 230 204 224 254 178 276 276 227 224 249 245 200 278 214 206 209 215 216 219 222 226 229 233 233
232 231 231 234 240 241 238 225 233 249 237 240 244 251 254 247 263 234 239 222 213 213 243 265 253 174 226 185 131 196 211 244 252 212 215 220 226 227 227 229 230 231 233
237 226 231 235 236 240 240 235 233 237 231 241 244 236 245 244 225 233 217 226 222 212 247 252 242 200 212 178 179 202 216 231 226 231 220 213 226 227 229 229 231 234 235
235 241 225 233 238 236 236 235 234 235 238 239 240 238 252 251 236 240 241 225 217 212 219 250 235 214 271 195 175 193 199 212 233 223 199 210 225 233 229 226 226 228 229
246 244 232 233 234 237 236 237 237 237 246 247 249 253 258 246 248 233 239 242 235 226 224 249 256 243 237 195 239 222 190 198 230 211 201 205 210 220 223 222 230 235 233
260 250 247 244 237 235 231 229 237 243 246 249 249 244 243 236 232 229 224 218 232 229 240 244 259 254 240 216 216 209 238 192 208 227 254 216 214 221 215 219 233 223 226
255 247 248 244 240 238 225 216 238 237 235 245 243 238 237 203 218 205 210 229 241 227 232 233 221 237 256 257 255 259 239 243 239 168 212 236 188 237 251 222 196 209 205
255 240 241 247 244 245 221 193 204 243 241 235 233 235 232 226 205 214 205 208 220 234 250 248 251 242 239 230 280 250 267 245 246 172 217 259 229 242 237 219 187 192 209
270 237 227 235 263 258 230 200 197 225 232 240 241 233 232 238 203 210 206 200 213 211 216 225 234 247 231 241 237 258 265 264 257 252 218 268 263 247 241 238 165 197 207
269 267 276 296 273 268 228 201 190 225 229 230 231 231 232 222 198 197 212 208 209 214 185 199 235 303 338 273 273 245 250 249 267 286 197 234 273 258 254 259 207 158 199
247 263 256 260 259 269 255 200 199 237 234 229 223 227 210 233 186 190 211 209 212 211 212 182 203 230 235 231 209 242 255 246 243 272 319 176 281 321 266 207 212 172 198